Simultaneous Nadir Overpasses (SNOs) Predictions

Prediction of SNOs between FY3D and LANDSAT-8 Satellite Orbit:

Table of predicted SNOs for the next 14.0 days since TLE Epoch: 1/28/2024
Index Date (FY3D) Time (FY3D) Lat,Lon (FY3D) SZA (FY3D ) Date (LANDSAT-8) Time (LANDSAT-8) Lat,Lon (LANDSAT-8) SZA (LANDSAT-8 ) Distance(km) Time Diff (sec)
1 01/30/2024 10:39:29 73.86, 22.84 91.51 01/30/2024 10:39:45 73.86, 22.84 91.50 0.45 16
2 01/30/2024 11:30:13 -73.81,-169.72 88.56 01/30/2024 11:29:14 -73.79,-169.67 88.58 2.33 59
3 02/02/2024 02:06:22 -73.86, -28.82 89.24 02/02/2024 02:06:50 -73.88, -28.89 89.22 3.25 28
4 02/02/2024 02:57:07 73.81, 138.59 90.71 02/02/2024 02:56:17 73.79, 138.57 90.69 2.56 50
5 02/04/2024 17:33:16 73.88, -80.54 90.01 02/04/2024 17:33:52 73.90, -80.61 90.03 3.30 36
6 02/04/2024 18:24:00 -73.81, 86.92 90.07 02/04/2024 18:23:21 -73.84, 86.89 90.05 2.74 39
7 02/07/2024 09:00:10 -73.93,-132.35 90.75 02/07/2024 09:00:56 -73.92,-132.34 90.76 1.63 46
8 02/07/2024 09:50:54 73.85, 35.17 89.16 02/07/2024 09:50:23 73.83, 35.11 89.14 3.00 31
9 02/10/2024 00:27:02 73.93, 175.98 88.42 02/10/2024 00:27:56 73.93, 175.93 88.41 1.67 54
10 02/10/2024 01:17:46 -73.86, -16.54 91.67 02/10/2024 01:17:25 -73.87, -16.57 91.66 1.25 21



Historial Predications of SNOs between FY3D and LANDSAT-8
